sat.trackr.live / text

‹ back to catalog

STARLINK-4640

NORAD 53728 · 2022-107AE

PAYLOAD ACTIVE UNKNOWN

§ Identity

Operator
Country
US
Launch date
2022-09-05
Launch site
AFETR
Launch vehicle
Mass (kg)
RCS (m²)

Purposes: comms

External: N2YO · Heavens-Above · Gunter

§ Orbital elements

Epoch: 2026-09-20T21:16:34.908096Z

Period
93.85 min
Inclination
53.1578°
Eccentricity
0.0001279
Mean motion
15.34387335 rev/d
Perigee alt
461.9 km
Apogee alt
463.6 km
Semi-major
6,840.9 km
B*
3.1750e-5
RAAN
81.6106°
Arg perigee
91.7045°
Mean anomaly
268.4104°
Rev number
22,424

§ Raw data

STARLINK-46401 53728U 22107AE  26263.88651514  .00000696  00000+0  31750-4 0  99942 53728  53.1578  81.6106 0001279  91.7045 268.4104 15.34387335224244

JSON: /api/v1/satellites/53728 · /tle

For live sub-satellite position, see the globe view (requires WebGL).

§ Visibility from observer

Set your observer location to see the next 7 days of passes ≥ 10°. The values pass through the URL so the page stays shareable.

No JS? Fill the form by hand. The geolocation button needs JavaScript.